Stations météo

réclame
Mon MeteoGroup
Aultbea, Grande-Bretagne (3034): Température de l'air & dewpoint: 15.10.2020 02:00:00 - 21.10.2020 02:00:00 (BST)Aultbea, Grande-Bretagne (3034): Température de l'air -20cm & Température de l'air -100cm: 15.10.2020 02:00:00 - 21.10.2020 02:00:00 (BST)Aultbea, Grande-Bretagne (3034): Vitesse du vent: 15.10.2020 02:00:00 - 21.10.2020 02:00:00 (BST)Aultbea, Grande-Bretagne (3034): Direction du vent: 15.10.2020 02:00:00 - 21.10.2020 02:00:00 (BST)Aultbea, Grande-Bretagne (3034): reduced air pressure: 15.10.2020 02:00:00 - 21.10.2020 02:00:00 (BST)Aultbea, Grande-Bretagne (3034): visibility: 15.10.2020 02:00:00 - 21.10.2020 02:00:00 (BST)Aultbea, Grande-Bretagne (3034): Quantités de précipitations: 15.10.2020 02:00:00 - 21.10.2020 02:00:00 (BST)
Date & Time tt [°C] td [°C] tt -20cm [°C] tt -100cm [°C] ff [km/h] ff [knt] dd ppp [hPa] vv [km] rr [mm]
21.10.2020 02:00:00 10,3 9,3 - - 24 13 NE 992,5 24 0,6
21.10.2020 01:00:00 10,3 9,1 - - 28 15 NE 992,4 17 0,2
21.10.2020 00:00:00 10,2 9,1 - - 22 12 NE 992,5 20 0,6
20.10.2020 23:00:00 10,4 9,0 - - 21 11 ENE 992,8 20 0,4
20.10.2020 22:00:00 10,4 9,1 - - 18 10 ENE 992,8 20 0,4
20.10.2020 21:00:00 11,1 8,6 - - 21 11 ENE 992,9 35 0,0
20.10.2020 20:00:00 10,9 8,9 - - 18 10 ENE 992,9 50 0,0
20.10.2020 19:00:00 10,6 9,0 - - 21 11 ENE 992,5 50 0,0
20.10.2020 18:00:00 11,2 9,4 - - 16 9 NE 992,0 50 0,0
20.10.2020 17:00:00 12,2 10,1 - - 16 9 NE 992,4 50 0,0
20.10.2020 16:00:00 12,2 10,7 - - 13 7 NE 992,7 50 0,0
20.10.2020 15:00:00 11,8 10,5 - - 5 3 NW 992,8 20 0,0
20.10.2020 14:00:00 11,8 10,3 - - 2 1 W 993,2 18 0,0
20.10.2020 13:00:00 11,9 10,3 - - 4 2 SSW 993,2 16 0,0
20.10.2020 12:00:00 11,3 10,4 - - 4 2 W 993,4 17 0,0
20.10.2020 11:00:00 11,3 10,8 - - 2 1 NE 993,3 30 0,2
20.10.2020 10:00:00 10,4 10,0 9,4 10,2 2 1 SSE 993,4 19 0,4
20.10.2020 09:00:00 10,5 10,0 - - 9 5 ENE 993,3 27 0,8
20.10.2020 08:00:00 10,0 9,7 - - 8 4 ESE 993,3 12 1,2
20.10.2020 07:00:00 10,1 9,8 - - 5 3 SE 993,3 14 1,2
20.10.2020 06:00:00 9,8 9,5 - - 2 1 S 993,7 9 0,8
20.10.2020 05:00:00 9,9 9,6 - - 2 1 WSW 994,2 15 0,6
20.10.2020 04:00:00 10,0 9,7 - - 8 4 E 994,6 15 2,0
20.10.2020 03:00:00 10,0 9,6 - - 4 2 ESE 995,3 16 2,6
20.10.2020 02:00:00 10,0 9,6 - - 9 5 NE 995,7 19 1,6
20.10.2020 01:00:00 10,1 9,5 - - 11 6 E 996,1 15 0,8
20.10.2020 00:00:00 10,1 9,9 - - 13 7 ENE 996,4 15 0,8
19.10.2020 23:00:00 9,0 8,8 - - 4 2 E 997,2 12 0,4
19.10.2020 22:00:00 9,1 8,8 - - 4 2 E 997,7 13 0,6
19.10.2020 21:00:00 9,4 9,0 - - 4 2 SE 998,4 18 0,8
19.10.2020 20:00:00 9,7 9,3 - - 8 4 SE 999,2 12 1,6
19.10.2020 19:00:00 9,7 9,3 - - 8 4 E 999,8 9 2,0
19.10.2020 18:00:00 9,6 9,1 - - 4 2 SE 1000,1 17 1,2
19.10.2020 17:00:00 9,6 9,0 - - 2 1 WNW 1000,9 10 1,6
19.10.2020 16:00:00 9,5 8,8 - - 5 3 N 1001,8 11 1,6
19.10.2020 15:00:00 9,6 8,8 - - 4 2 N 1002,4 11 1,4
19.10.2020 14:00:00 9,7 8,4 - - 8 4 SSE 1003,4 20 0,6
19.10.2020 13:00:00 9,9 8,0 - - 9 5 SSE 1003,8 50 0,0
19.10.2020 12:00:00 9,7 8,4 - - 9 5 SE 1004,4 50 0,0
19.10.2020 11:00:00 9,0 8,0 - - 9 5 E 1004,9 30 0,8
19.10.2020 10:00:00 8,8 7,9 9,0 10,4 11 6 SE 1005,9 16 0,6
19.10.2020 09:00:00 8,4 7,5 - - 4 2 E 1006,2 40 0,2
19.10.2020 08:00:00 8,7 8,1 - - 11 6 SSE 1006,6 18 0,8
19.10.2020 07:00:00 8,7 8,2 - - 13 7 SSE 1007,2 16 1,0
19.10.2020 06:00:00 8,7 8,1 - - 11 6 SSE 1008,0 11 1,2
19.10.2020 05:00:00 8,6 7,8 - - 9 5 SSE 1008,8 23 0,6
19.10.2020 04:00:00 9,3 8,0 - - 13 7 S 1009,7 20 0,0
19.10.2020 03:00:00 8,9 8,1 - - 11 6 S 1010,6 50 0,0
19.10.2020 02:00:00 8,0 7,6 - - 9 5 SSE 1011,4 45 0,4
19.10.2020 01:00:00 7,6 7,1 - - 9 5 SSE 1012,1 6 0,6
19.10.2020 00:00:00 8,0 7,0 - - 11 6 S 1012,9 8 0,0
18.10.2020 23:00:00 8,4 7,0 - - 15 8 S 1013,5 45 0,0
18.10.2020 22:00:00 8,7 6,9 - - 18 10 SSW 1014,2 45 0,0
18.10.2020 21:00:00 7,4 6,5 - - 8 4 SSE 1014,9 50 0,0
18.10.2020 20:00:00 6,9 5,2 - - 5 3 E 1016,0 50 0,0
18.10.2020 19:00:00 7,2 3,9 - - 4 2 WSW 1016,7 35 0,0
18.10.2020 18:00:00 8,4 4,3 - - 8 4 SSW 1017,1 50 0,0
18.10.2020 17:00:00 8,4 4,8 - - 5 3 S 1017,8 50 0,0
18.10.2020 16:00:00 8,4 4,0 - - 8 4 SW 1018,8 50 0,0
18.10.2020 15:00:00 8,8 3,9 - - 11 6 SW 1019,9 45 0,0
18.10.2020 14:00:00 8,4 3,3 - - 11 6 SW 1020,7 50 0,0
18.10.2020 13:00:00 8,5 3,9 - - 9 5 S 1021,3 50 0,0
18.10.2020 12:00:00 7,8 3,9 - - 9 5 S 1022,6 40 0,0
18.10.2020 11:00:00 6,6 3,6 - - 9 5 SSE 1023,1 50 0,0
18.10.2020 10:00:00 6,5 3,8 9,0 10,5 5 3 SSE 1023,8 50 0,0
18.10.2020 09:00:00 3,4 2,3 - - 5 3 E 1024,5 50 0,0
18.10.2020 08:00:00 2,8 1,6 - - 4 2 ENE 1024,9 50 0,0
18.10.2020 07:00:00 3,6 2,4 - - 4 2 E 1024,8 50 0,0
18.10.2020 06:00:00 3,5 1,8 - - 5 3 E 1025,4 50 0,0
18.10.2020 05:00:00 5,1 3,2 - - 8 4 E 1025,8 50 0,0
18.10.2020 04:00:00 6,1 3,9 - - 13 7 NE 1026,4 50 0,0
18.10.2020 03:00:00 5,8 4,6 - - 11 6 ENE 1026,7 45 0,0
18.10.2020 02:00:00 6,0 4,9 - - 9 5 ENE 1027,3 50 0,0
18.10.2020 01:00:00 6,1 5,4 - - 9 5 ENE 1027,6 50 0,2
18.10.2020 00:00:00 6,7 6,0 - - 8 4 E 1027,7 13 0,6
17.10.2020 23:00:00 7,1 6,1 - - 8 4 E 1027,7 50 0,2
17.10.2020 22:00:00 7,7 5,8 - - 11 6 NE 1027,9 13 0,0
17.10.2020 21:00:00 7,3 5,8 - - 13 7 NE 1028,0 50 0,0
17.10.2020 20:00:00 7,3 5,9 - - 11 6 NE 1028,1 50 0,0
17.10.2020 19:00:00 7,0 4,9 - - 9 5 NNE 1028,0 50 0,0
17.10.2020 18:00:00 8,0 5,9 - - 9 5 NNE 1027,7 50 0,0
17.10.2020 17:00:00 7,8 6,5 - - 15 8 NE 1027,9 6 0,0
17.10.2020 16:00:00 8,5 6,9 - - 11 6 ENE 1028,1 30 0,0
17.10.2020 15:00:00 9,2 5,8 - - 15 8 NNE 1028,3 50 0,0
17.10.2020 14:00:00 10,7 6,5 - - 15 8 NE 1028,5 45 0,0
17.10.2020 13:00:00 10,8 7,1 - - 11 6 NE 1028,8 40 0,0
17.10.2020 12:00:00 8,9 5,5 - - 15 8 ENE 1028,9 45 0,0
17.10.2020 11:00:00 8,8 5,5 - - 15 8 ENE 1028,8 45 0,0
17.10.2020 10:00:00 7,7 5,2 9,4 10,7 11 6 ENE 1028,7 50 0,0
17.10.2020 09:00:00 6,2 4,7 - - 11 6 NE 1028,6 50 0,0
17.10.2020 08:00:00 5,3 3,8 - - 11 6 NE 1028,6 50 0,0
17.10.2020 07:00:00 6,6 5,4 - - 5 3 NE 1028,6 28 0,0
17.10.2020 06:00:00 6,6 5,0 - - 13 7 NE 1028,6 50 0,0
17.10.2020 05:00:00 5,9 4,7 - - 13 7 NE 1028,6 50 0,0
17.10.2020 04:00:00 7,7 5,3 - - 9 5 NE 1028,8 50 0,0
17.10.2020 03:00:00 8,2 5,5 - - 9 5 NE 1029,3 50 0,0
17.10.2020 02:00:00 8,2 6,1 - - 13 7 ENE 1029,5 50 0,0
17.10.2020 01:00:00 8,3 5,3 - - 4 2 ENE 1029,5 50 0,0
17.10.2020 00:00:00 8,9 5,5 - - 9 5 ENE 1029,8 50 0,0
16.10.2020 23:00:00 9,0 5,8 - - 11 6 NE 1029,7 50 0,0
16.10.2020 22:00:00 9,3 6,1 - - 8 4 ENE 1029,7 50 0,0
16.10.2020 21:00:00 9,5 6,2 - - 11 6 ENE 1029,8 45 0,0
16.10.2020 20:00:00 9,6 7,0 - - 5 3 NNE 1029,7 50 0,0
16.10.2020 19:00:00 10,0 6,5 - - 2 1 ESE 1029,6 50 0,0
16.10.2020 18:00:00 10,7 6,8 - - 8 4 S 1029,3 50 0,0
16.10.2020 17:00:00 11,2 6,6 - - 13 7 ENE 1029,3 45 0,0
16.10.2020 16:00:00 11,5 6,8 - - 13 7 ENE 1029,5 50 0,0
16.10.2020 15:00:00 11,2 7,1 - - 13 7 NE 1029,9 50 0,0
16.10.2020 14:00:00 11,2 7,2 - - 15 8 ENE 1030,1 40 0,0
16.10.2020 13:00:00 10,4 6,4 - - 18 10 ENE 1030,4 45 0,0
16.10.2020 12:00:00 10,1 6,7 - - 18 10 NE 1030,8 45 0,0
16.10.2020 11:00:00 8,8 5,9 - - 16 9 ENE 1030,9 50 0,0
16.10.2020 10:00:00 7,7 5,7 9,2 10,7 13 7 NE 1031,1 50 0,0
16.10.2020 09:00:00 7,3 5,5 - - 9 5 NE 1031,1 45 0,0
16.10.2020 08:00:00 7,1 5,3 - - 13 7 NE 1031,1 50 0,0
16.10.2020 07:00:00 6,7 4,6 - - 11 6 NE 1031,0 50 0,0
16.10.2020 06:00:00 7,3 5,0 - - 9 5 NE 1031,1 50 0,0
16.10.2020 05:00:00 6,9 4,7 - - 4 2 NE 1031,4 50 0,0
16.10.2020 04:00:00 7,1 4,7 - - 4 2 ENE 1031,6 50 0,0
16.10.2020 03:00:00 7,3 5,0 - - 9 5 ENE 1031,9 50 0,0
16.10.2020 02:00:00 7,9 5,3 - - 11 6 NE 1032,1 50 0,0
16.10.2020 01:00:00 7,9 5,7 - - 15 8 NE 1032,1 50 0,0
16.10.2020 00:00:00 7,9 5,6 - - 13 7 NE 1032,1 50 0,0
15.10.2020 23:00:00 8,2 4,9 - - 11 6 ENE 1032,0 50 0,0
15.10.2020 22:00:00 7,7 3,2 - - 4 2 ESE 1032,0 45 0,0
15.10.2020 21:00:00 7,9 3,1 - - 5 3 E 1032,0 50 0,0
15.10.2020 20:00:00 7,6 3,2 - - 5 3 E 1032,0 50 0,0
15.10.2020 19:00:00 8,0 3,1 - - 8 4 E 1032,0 50 0,0
15.10.2020 18:00:00 8,5 3,5 - - 5 3 E 1031,7 50 0,0
15.10.2020 17:00:00 9,4 3,7 - - 5 3 SE 1031,8 50 0,0
15.10.2020 16:00:00 9,7 4,1 - - 8 4 SE 1031,8 50 0,0
15.10.2020 15:00:00 9,8 4,1 - - 4 2 E 1031,8 45 0,0
15.10.2020 14:00:00 9,5 4,7 - - 4 2 SE 1031,9 50 0,0
15.10.2020 13:00:00 9,6 4,8 - - 15 8 ENE 1032,1 50 0,0
15.10.2020 12:00:00 9,7 3,6 - - 4 2 E 1032,2 50 0,0
15.10.2020 11:00:00 8,9 4,2 - - 9 5 ENE 1032,2 45 0,0
15.10.2020 10:00:00 8,3 4,0 9,2 10,9 5 3 ENE 1032,3 45 0,0
15.10.2020 09:00:00 7,9 2,8 - - 9 5 ENE 1032,1 50 0,0
15.10.2020 08:00:00 7,6 2,3 - - 9 5 ENE 1031,9 50 0,0
15.10.2020 07:00:00 6,0 3,0 - - 4 2 NE 1031,9 45 0,0
15.10.2020 06:00:00 6,4 2,6 - - 4 2 ENE 1031,9 45 0,0
15.10.2020 05:00:00 7,3 2,7 - - 11 6 ENE 1031,8 50 0,0
15.10.2020 04:00:00 7,6 3,0 - - 11 6 ENE 1032,0 50 0,0
15.10.2020 03:00:00 7,6 2,9 - - 13 7 ENE 1032,4 45 0,0
15.10.2020 02:00:00 6,8 2,7 - - 13 7 ENE 1032,4 50 0,0

tt = Température de l'air
td = dewpoint
tt -20cm = Température de l'air -20cm
tt -100cm = Température de l'air -100cm
ff = Vitesse du vent
dd = Direction du vent
ppp = reduced air pressure
vv = visibility
rr = Quantités de précipitations

stations d'obs. à proximité